Regional Weather Roundup
Issued by NWS Cleveland, OH

Home | Current Version | Previous Version | Graphics & Text | Print | Product List | Glossary On
Versions: 1 2 3 4 5 6 7 8 9 10 11 12 13 14 15 16 17 18 19 20 21 22 23 24 25 26 27 28 29 30 31 32 33 34 35 36 37 38 39 40 41 42 43 44 45 46 47 48 49 50
059
ASUS41 KCLE 250602
RWRCLE
OHIO REGIONAL WEATHER ROUNDUP
NATIONAL WEATHER SERVICE CLEVELAND, OH
200 AM EDT WED APR 25 2018

NOTE: "FAIR" INDICATES FEW OR NO CLOUDS BELOW 12,000 FEET WITH NO
SIGNIFICANT WEATHER AND/OR OBSTRUCTIONS TO VISIBILITY.

OHZ001>008-015>018-024>027-034-035-043-044-250700-
   NORTHWEST OHIO

CITY           SKY/WX    TMP DP  RH WIND       PRES   REMARKS
DEFIANCE       CLOUDY    50  48  93 N7        29.93F FOG
FINDLAY        FOG       51  48  89 N7        29.90S VSB 1/2
TOLEDO EXPRESS CLOUDY    49  49 100 N6        29.92F FOG
TOLEDO EXEC    CLOUDY    47  46  97 N6        29.93S FOG
LIMA           FOG       50  50 100 N7        29.91S VSB 1/4
$$

OHZ009>014-019>023-028>033-038-089-250700-
   NORTHEAST OHIO

CITY           SKY/WX    TMP DP  RH WIND       PRES   REMARKS
CLE-HOPKINS    DRIZZLE   53  51  93 CALM      29.92F
CLE-LAKEFRONT  LGT RAIN  46  44  93 NE6       29.90F
CUY CO. ARPT   NOT AVBL
LORAIN-ELYRIA  CLOUDY    51  47  86 NE9       29.90F FOG
ASHTABULA      CLOUDY    50  50 100 E5        29.93F
AKRON-CANTON   CLOUDY    52  48  86 E7        29.89F
WOOSTER        LGT RAIN  50  50 100 E3        29.90F FOG
MANSFIELD      CLOUDY    51  51 100 CALM      29.89F
YOUNGSTOWN     LGT RAIN  50  49  96 E8        29.90F
$$

OHZ042-051>053-060>062-070>072-077>081-250700-
  SOUTHWEST OHIO

CITY           SKY/WX    TMP DP  RH WIND       PRES   REMARKS
CINC-COVINGTON CLOUDY    53  51  93 N6        29.90S
CINC-LUNKEN    CLOUDY    55  54  96 VRB5      29.91S
HAMILTON       CLOUDY    54  52  93 NW6       29.91S
DAYTON         FOG       51  51 100 NW9       29.91S VSB 1/2
WRIGHT-PAT AFB NOT AVBL
DAYTON GENERAL CLOUDY    54  51  90 N8        29.89S FOG
WILMINGTON     FOG       55  54  96 NW5       29.88F VSB 3/4
$$

OHZ036-037-039>041-045>050-054>059-063>069-073>076-082>088-250700-
  CENTRAL AND SOUTHEAST OHIO

CITY           SKY/WX    TMP DP  RH WIND       PRES   REMARKS
COLUMBUS       CLOUDY    54  51  90 N3        29.88S
OSU AIRPORT    CLOUDY    53  52  96 CALM      29.88F FOG
BOLTON FIELD   CLOUDY    52  52  99 CALM      29.89S FOG
RICKENBACK AFB NOT AVBL
NEWARK         LGT RAIN  52  51  97 N3        29.87F FOG
MARION         CLOUDY    52  50  93 N3        29.90F FOG
LANCASTER      CLOUDY    53  52  96 CALM      29.88F
ZANESVILLE     CLOUDY    52  50  93 N3        29.87F
NEW PHILLY     NOT AVBL
$$




USA.gov is the U.S. government's official web portal to all federal, state and local government web resources and services.